Volver al catálogo

STARLINK-33989

ActivoComunicacionesVLEO
NORAD 63929·PAYLOAD·🇺🇸 United States

Lanzado May 13, 2025 desde Vandenberg Space Force Base

Loading…

Próximos Pases (próximas 24 horas)

TLE

ActualizadoSource: CelesTrak SupGP

Época: Sep 15, 2026, 03:19 UTC

1 63929C 25098D   26258.13868056  .00011429  00000+0  39760-3 0  2585
2 63929  70.0004 155.1933 0003300 275.8142 320.4000 15.29572342    14

Sigue STARLINK-33989 en tiempo real con AllMySat

Download on the App Store